This demonstration page uses our WeatherBlox Daily Observations layout. Learn more.

Left ArrowRight Arrow

Hourly Observations for April 26, 2020

Temp ( °F °C ) Dew Point ( °F °C ) Humidity (%) Winds ( mph kmh ) Pressure ( in mb ) Visibility ( mi km ) Precip ( " mm )
12:53 am 00:53 Clear 65 18.3 51 10.6 61 61 NNE 5 7 29.96 1015 10 16 0.00 0.00
1:53 am 01:53 Clear 61 16.1 51 10.6 70 70 NNE 5 7 29.96 1015 10 16 0.00 0.00
2:53 am 02:53 Clear 59 15 50 10 72 72 undefined N/A 29.95 1014 10 16 0.00 0.00
3:53 am 03:53 Clear 56 13.3 49 9.4 77 77 Calm 29.95 1014 10 16 0.00 0.00
4:53 am 04:53 Clear 54 12.2 48 8.9 80 80 Calm 29.96 1014 10 16 0.00 0.00
5:53 am 05:53 Clear 55 12.8 48 8.9 77 77 NW 5 7 29.96 1014 10 16 0.00 0.00
6:53 am 06:53 Sunny 52 11.1 48 8.9 86 86 Calm 29.96 1015 10 16 0.00 0.00
7:53 am 07:53 Sunny 58 14.4 49 9.4 72 72 Calm 29.98 1015 10 16 0.00 0.00
8:53 am 08:53 Sunny 65 18.3 51 10.6 61 61 Calm 29.98 1015 10 16 0.00 0.00
9:53 am 09:53 Sunny 72 22.2 54 12.2 53 53 Calm 29.98 1015 10 16 0.00 0.00
10:53 am 10:53 Sunny 76 24.4 51 10.6 42 42 ENE 7 11 29.98 1015 10 16 0.00 0.00
11:53 am 11:53 Sunny 79 26.1 51 10.6 38 38 VRB 5 7 29.96 1015 10 16 0.00 0.00
12:53 pm 12:53 Sunny 81 27.2 49 9.4 33 33 Calm 29.94 1014 10 16 0.00 0.00
1:53 pm 13:53 Sunny 83 28.3 49 9.4 31 31 SSW 3 6 29.92 1013 10 16 0.00 0.00
2:53 pm 14:53 Sunny 85 29.4 46 7.8 26 26 Calm 29.91 1013 10 16 0.00 0.00
3:53 pm 15:53 Sunny 85 29.4 41 5 21 21 SSW 8 13 29.90 1012 10 16 0.00 0.00
4:53 pm 16:53 Sunny 85 29.4 44 6.7 24 24 SW 6 9 29.88 1012 10 16 0.00 0.00
5:53 pm 17:53 Sunny 85 29.4 45 7.2 25 25 S 9 15 29.88 1012 10 16 0.00 0.00
6:53 pm 18:53 Mostly Sunny 81 27.2 48 8.9 32 32 S 6 9 29.88 1012 10 16 0.00 0.00
7:53 pm 19:53 Sunny 78 25.6 48 8.9 35 35 W 7 11 29.89 1012 10 16 0.00 0.00
8:53 pm 20:53 Clear 76 24.4 35 1.7 23 23 WNW 6 9 29.92 1013 10 16 0.00 0.00
9:53 pm 21:53 Clear 74 23.3 34 1.1 23 23 WNW 6 9 29.96 1015 10 16 0.00 0.00
10:53 pm 22:53 Clear 69 20.6 42 5.6 38 38 S 5 7 29.97 1015 10 16 0.00 0.00
11:53 pm 23:53 Clear 67 19.4 41 5 39 39 VRB 5 7 29.98 1015 10 16 0.00 0.00

Powered by AerisWeather